Weather History for KEWK - February, 2014

Change the Weather History Date:

Sunday, February 2, 2014

  Actual Average Record
Temperature  
Mean Temperature 20 °F -  
Max Temperature 28 °F 39 °F 66 °F (2003)
Min Temperature 12 °F 22 °F 0 °F (2011)
Degree Days  
Heating Degree Days 45    
Moisture  
Dew Point 6 °F    
Average Humidity 57    
Maximum Humidity 73    
Minimum Humidity 40    
Precipitation  
Precipitation 0.00 in - - ()
Sea Level Pressure  
Sea Level Pressure 30.29 in    
Wind  
Wind Speed 10 mph (NE)    
Max Wind Speed 17 mph    
Max Gust Speed 22 mph    
Visibility 10 miles    
Events      
Averages and records for this station are not official NWS values.
T = Trace of Precipitation, MM = Missing Value Source: NWS Daily Summary

Daily Weather History Graph

Daily Weather History Graph

Search for Another Location

Airport or City:

Trip Planner

Search our weather history database for the weather conditions in past years. The results will help you decide how hot, cold, wet, or windy it might be!

Date:

Astronomy

Feb. 02, 2014 Rise Set
Actual Time 7:32 AM CST 5:53 PM CST
Civil Twilight 7:05 AM CST 6:21 PM CST
Nautical Twilight 6:33 AM CST 6:52 PM CST
Astronomical Twilight 6:02 AM CST 7:23 PM CST
Moon 9:03 AM CST 9:34 PM CST
Length of Visible Light 11h 16m
Length of Day
10h 20m
Waxing Crescent, 11% of the Moon is Illuminated
Feb 2
Waxing Crescent
Feb 6
First Quarter
Feb 14
Full
Feb 22
Last Quarter
Mar 1
New

Hourly Weather History & Observations

Time (CST) Temp. Windchill Dew Point Humidity Pressure Visibility Wind Dir Wind Speed Gust Speed Precip Events Conditions
12:15 AM 17.6 °F 5.0 °F 10.4 °F 73% 30.24 in 10.0 mi North 11.5 mph - N/A   Clear
12:35 AM 17.6 °F 5.7 °F 10.4 °F 73% 30.25 in 10.0 mi North 10.4 mph - N/A   Clear
12:55 AM 17.6 °F 5.0 °F 8.6 °F 68% 30.25 in 10.0 mi North 11.5 mph - N/A   Clear
1:15 AM 17.6 °F 6.4 °F 10.4 °F 73% 30.26 in 10.0 mi North 9.2 mph - N/A   Clear
1:35 AM 17.6 °F 5.7 °F 8.6 °F 68% 30.27 in 10.0 mi North 10.4 mph - N/A   Clear
1:55 AM 17.6 °F 4.3 °F 8.6 °F 68% 30.26 in 10.0 mi North 12.7 mph - N/A   Clear
2:15 AM 17.6 °F 2.7 °F 8.6 °F 68% 30.26 in 10.0 mi North 16.1 mph - N/A   Clear
2:35 AM 17.6 °F 2.7 °F 6.8 °F 63% 30.26 in 10.0 mi NNE 16.1 mph - N/A   Clear
2:55 AM 15.8 °F 1.4 °F 6.8 °F 68% 30.27 in 10.0 mi NNE 13.8 mph 21.9 mph N/A   Clear
3:15 AM 15.8 °F 3.4 °F 6.8 °F 68% 30.27 in 10.0 mi NNE 10.4 mph - N/A   Clear
3:35 AM 15.8 °F 2.7 °F 5.0 °F 62% 30.29 in 10.0 mi NNE 11.5 mph - N/A   Clear
3:55 AM 15.8 °F -0.2 °F 5.0 °F 62% 30.28 in 10.0 mi NNE 17.3 mph - N/A   Clear
4:15 AM 15.8 °F 0.9 °F 3.2 °F 58% 30.28 in 10.0 mi NNE 15.0 mph 20.7 mph N/A   Clear
4:35 AM 14.0 °F 0.5 °F 3.2 °F 62% 30.26 in 10.0 mi NNE 11.5 mph - N/A   Clear
4:55 AM 14.0 °F 1.2 °F 3.2 °F 62% 30.29 in 10.0 mi NE 10.4 mph - N/A   Clear
5:15 AM 14.0 °F -0.2 °F 3.2 °F 62% 30.28 in 10.0 mi NNE 12.7 mph - N/A   Clear
5:35 AM 12.2 °F -1.8 °F 3.2 °F 67% 30.29 in 10.0 mi NNE 11.5 mph - N/A   Clear
5:55 AM 14.0 °F 2.0 °F 3.2 °F 62% 30.31 in 10.0 mi NE 9.2 mph 17.3 mph N/A   Clear
6:15 AM 14.0 °F 0.5 °F 3.2 °F 62% 30.30 in 10.0 mi NE 11.5 mph - N/A   Clear
6:35 AM 14.0 °F -0.8 °F 3.2 °F 62% 30.31 in 10.0 mi NNE 13.8 mph - N/A   Clear
6:55 AM 12.2 °F -1.8 °F 3.2 °F 67% 30.31 in 10.0 mi NNE 11.5 mph 16.1 mph N/A   Clear
7:15 AM 12.2 °F -3.1 °F 3.2 °F 67% 30.31 in 10.0 mi NNE 13.8 mph - N/A   Clear
7:35 AM 12.2 °F -3.7 °F 3.2 °F 67% 30.30 in 10.0 mi NNE 15.0 mph - N/A   Clear
7:55 AM 12.2 °F -1.8 °F 1.4 °F 62% 30.31 in 10.0 mi NE 11.5 mph 18.4 mph N/A   Clear
8:15 AM 14.0 °F 0.5 °F 3.2 °F 62% 30.32 in 10.0 mi NE 11.5 mph - N/A   Clear
8:35 AM 14.0 °F 0.5 °F 3.2 °F 62% 30.32 in 10.0 mi NE 11.5 mph - N/A   Clear
8:55 AM 14.0 °F 2.0 °F 3.2 °F 62% 30.32 in 10.0 mi NE 9.2 mph - N/A   Clear
9:15 AM 14.0 °F 1.2 °F 3.2 °F 62% 30.32 in 10.0 mi NE 10.4 mph 17.3 mph N/A   Clear
9:35 AM 14.0 °F 2.9 °F 3.2 °F 62% 30.34 in 10.0 mi NE 8.1 mph - N/A   Clear
9:55 AM 15.8 °F 4.2 °F 3.2 °F 58% 30.36 in 10.0 mi NE 9.2 mph - N/A   Clear
10:15 AM 15.8 °F 6.1 °F 3.2 °F 58% 30.37 in 10.0 mi ENE 6.9 mph - N/A   Clear
10:35 AM 15.8 °F 6.1 °F 3.2 °F 58% 30.38 in 10.0 mi ENE 6.9 mph - N/A   Clear
10:55 AM 17.6 °F 8.2 °F 5.0 °F 58% 30.38 in 10.0 mi NE 6.9 mph - N/A   Clear
11:15 AM 17.6 °F 7.3 °F 5.0 °F 58% 30.36 in 10.0 mi NNE 8.1 mph - N/A   Clear
11:35 AM 19.4 °F 10.4 °F 6.8 °F 58% 30.36 in 10.0 mi NE 6.9 mph - N/A   Clear
11:55 AM 21.2 °F 12.6 °F 6.8 °F 54% 30.36 in 10.0 mi NE 6.9 mph - N/A   Clear
12:15 PM 21.2 °F 11.7 °F 6.8 °F 54% 30.35 in 10.0 mi NNE 8.1 mph - N/A   Clear
12:35 PM 23.0 °F 13.1 °F 6.8 °F 50% 30.33 in 10.0 mi NNE 9.2 mph - N/A   Clear
12:55 PM 24.8 °F 15.3 °F 6.8 °F 46% 30.32 in 10.0 mi NNE 9.2 mph - N/A   Clear
1:15 PM 24.8 °F 16.1 °F 6.8 °F 46% 30.31 in 10.0 mi NNE 8.1 mph - N/A   Clear
1:35 PM 26.6 °F 20.0 °F 6.8 °F 43% 30.31 in 10.0 mi ENE 5.8 mph - N/A   Clear
1:55 PM 26.6 °F 20.0 °F 6.8 °F 43% 30.30 in 10.0 mi NE 5.8 mph - N/A   Clear
2:15 PM 26.6 °F 19.1 °F 6.8 °F 43% 30.29 in 10.0 mi ENE 6.9 mph - N/A   Clear
2:35 PM 26.6 °F 19.1 °F 6.8 °F 43% 30.29 in 10.0 mi ENE 6.9 mph - N/A   Clear
2:55 PM 28.4 °F 22.2 °F 6.8 °F 40% 30.28 in 10.0 mi East 5.8 mph - N/A   Clear
3:15 PM 28.4 °F 20.4 °F 6.8 °F 40% 30.28 in 10.0 mi NE 8.1 mph - N/A   Clear
3:35 PM 28.4 °F 22.2 °F 6.8 °F 40% 30.28 in 10.0 mi East 5.8 mph - N/A   Clear
3:55 PM 28.4 °F 22.2 °F 6.8 °F 40% 30.28 in 10.0 mi East 5.8 mph - N/A   Clear
4:15 PM 28.4 °F 22.2 °F 6.8 °F 40% 30.28 in 10.0 mi East 5.8 mph - N/A   Clear
4:35 PM 28.4 °F 21.2 °F 6.8 °F 40% 30.28 in 10.0 mi ENE 6.9 mph - N/A   Clear
4:55 PM 28.4 °F 22.2 °F 6.8 °F 40% 30.28 in 10.0 mi East 5.8 mph - N/A   Clear
5:15 PM 26.6 °F 21.2 °F 6.8 °F 43% 30.27 in 10.0 mi East 4.6 mph - N/A   Clear
5:35 PM 26.6 °F 21.2 °F 6.8 °F 43% 30.28 in 10.0 mi East 4.6 mph - N/A   Clear
5:55 PM 24.8 °F - 6.8 °F 46% 30.28 in 10.0 mi Calm Calm - N/A   Clear
6:15 PM 21.2 °F - 5.0 °F 50% 30.28 in 10.0 mi Calm Calm - N/A   Clear
6:35 PM 21.2 °F 16.4 °F 6.8 °F 54% 30.28 in 10.0 mi East 3.5 mph - N/A   Clear
6:55 PM 21.2 °F - 6.8 °F 54% 30.28 in 10.0 mi Calm Calm - N/A   Clear
7:15 PM 21.2 °F - 5.0 °F 50% 30.28 in 10.0 mi Calm Calm - N/A   Clear
7:35 PM 21.2 °F - 5.0 °F 50% 30.29 in 10.0 mi Calm Calm - N/A   Clear
7:55 PM 21.2 °F 16.4 °F 5.0 °F 50% 30.29 in 10.0 mi ESE 3.5 mph - N/A   Clear
8:15 PM 19.4 °F 14.3 °F 5.0 °F 54% 30.29 in 10.0 mi ESE 3.5 mph - N/A   Clear
8:35 PM 19.4 °F 12.8 °F 5.0 °F 54% 30.28 in 10.0 mi SE 4.6 mph - N/A   Clear
8:55 PM 19.4 °F 14.3 °F 5.0 °F 54% 30.28 in 10.0 mi SE 3.5 mph - N/A   Clear
9:15 PM 19.4 °F 12.8 °F 5.0 °F 54% 30.28 in 10.0 mi SE 4.6 mph - N/A   Clear
9:35 PM 17.6 °F 10.7 °F 6.8 °F 63% 30.28 in 10.0 mi SE 4.6 mph - N/A   Clear
9:55 PM 17.6 °F 10.7 °F 6.8 °F 63% 30.28 in 10.0 mi SE 4.6 mph - N/A   Clear
10:15 PM 15.8 °F 7.2 °F 5.0 °F 62% 30.28 in 10.0 mi SE 5.8 mph - N/A   Clear
10:35 PM 15.8 °F 7.2 °F 6.8 °F 68% 30.28 in 10.0 mi SE 5.8 mph - N/A   Clear
10:55 PM 15.8 °F 8.6 °F 6.8 °F 68% 30.28 in 10.0 mi SSE 4.6 mph - N/A   Clear
11:15 PM 15.8 °F 7.2 °F 6.8 °F 68% 30.27 in 10.0 mi SSE 5.8 mph - N/A   Clear
11:35 PM 15.8 °F 6.1 °F 6.8 °F 68% 30.26 in 10.0 mi SE 6.9 mph - N/A   Clear
11:55 PM 15.8 °F 7.2 °F 6.8 °F 68% 30.27 in 10.0 mi SSE 5.8 mph - N/A   Clear